GW0571 Weather Reports


time (UTC)temp
C
wind
direction
speed
KPH
gust
KPH
rain 1hr
cm
rain 24hr
cm
rain mn
cm
humidity
%
barometer
mb
20260906201931 20 311 0.0 6.4 0.00 0.00 0.00 60 1017.0
20260906201426 21 337 1.6 8.0 0.00 0.00 0.00 57 1016.9
20260906200921 21 333 4.8 6.4 0.00 0.00 0.00 56 1016.7
20260906200417 20 313 3.2 4.8 0.00 0.00 0.00 60 1016.7
20260906195912 21 320 3.2 11.3 0.00 0.00 0.00 56 1016.7
20260906195408 22 303 3.2 8.0 0.00 0.00 0.00 57 1016.7
20260906194904 22 243 9.7 11.3 0.00 0.00 0.00 55 1016.6
20260906194359 20 8 4.8 8.0 0.00 0.00 0.00 61 1016.6
20260906193854 20 267 1.6 6.4 0.00 0.00 0.00 62 1016.7
20260906193349 21 0 6.4 11.3 0.00 0.00 0.00 56 1016.6
20260906192845 22 359 6.4 17.7 0.00 0.00 0.00 54 1016.8
20260906192339 20 332 4.8 9.7 0.00 0.00 0.00 57 1016.6
20260906191838 21 304 3.2 11.3 0.00 0.00 0.00 57 1016.7
20260906191339 21 333 9.7 14.5 0.00 0.00 0.00 56 1016.7
20260906190833 22 84 3.2 16.1 0.00 0.00 0.00 61 1016.8
20260906190332 22 327 1.6 8.0 0.00 0.00 0.00 54 1016.8
20260906185827 21 310 0.0 8.0 0.00 0.00 0.00 55 1016.7
20260906185326 21 308 3.2 11.3 0.00 0.00 0.00 56 1016.8
20260906184821 21 262 3.2 6.4 0.00 0.00 0.00 56 1016.7
20260906184315 21 339 8.0 9.7 0.00 0.00 0.00 54 1016.7
20260906183811 20 338 3.2 6.4 0.00 0.00 0.00 62 1016.7
20260906183308 22 324 4.8 11.3 0.00 0.00 0.00 57 1016.7
20260906182808 21 346 4.8 11.3 0.00 0.00 0.00 55 1016.8
20260906182306 21 329 4.8 9.7 0.00 0.00 0.00 59 1016.6
20260906181758 21 313 4.8 8.0 0.00 0.00 0.00 63 1016.8
20260906181254 21 337 1.6 9.7 0.00 0.00 0.00 62 1016.9
20260906180754 20 352 3.2 14.5 0.00 0.00 0.00 63 1016.7
20260906180249 21 354 3.2 8.0 0.00 0.00 0.00 64 1016.6
20260906175746 21 338 12.9 12.9 0.00 0.00 0.00 63 1016.8
20260906175243 20 352 4.8 12.9 0.00 0.00 0.00 64 1016.7
20260906174741 20 325 3.2 8.0 0.00 0.00 0.00 64 1016.8
20260906174241 22 307 1.6 6.4 0.00 0.00 0.00 60 1016.7
20260906173736 21 53 1.6 8.0 0.00 0.00 0.00 60 1016.7
20260906173232 21 339 4.8 4.8 0.00 0.00 0.00 62 1016.8
20260906172731 20 318 3.2 11.3 0.00 0.00 0.00 65 1017.0
20260906172226 21 296 6.4 9.7 0.00 0.00 0.00 61 1016.8
20260906171721 21 323 3.2 8.0 0.00 0.00 0.00 58 1016.9
20260906171216 21 18 1.6 11.3 0.00 0.00 0.00 63 1016.9
20260906170712 21 349 4.8 11.3 0.00 0.00 0.00 63 1016.8
20260906170213 20 346 4.8 14.5 0.00 0.00 0.00 65 1016.9
20260906165709 20 347 3.2 8.0 0.00 0.00 0.00 68 1017.2
20260906165204 21 354 3.2 11.3 0.00 0.00 0.00 64 1017.3
20260906164703 21 0 3.2 6.4 0.00 0.00 0.00 66 1017.0
20260906164158 21 316 1.6 8.0 0.00 0.00 0.00 67 1017.2
20260906163654 21 297 3.2 8.0 0.00 0.00 0.00 65 1017.0
20260906163150 22 21 1.6 8.0 0.00 0.00 0.00 63 1017.0
20260906162647 20 11 0.0 4.8 0.00 0.00 0.00 68 1017.2
20260906162146 20 357 4.8 9.7 0.00 0.00 0.00 67 1017.3
20260906161641 20 0 3.2 8.0 0.00 0.00 0.00 70 1017.3
20260906161140 20 5 1.6 12.9 0.00 0.00 0.00 70 1017.0
20260906160639 20 289 4.8 6.4 0.00 0.00 0.00 69 1017.2
20260906160139 21 351 6.4 9.7 0.00 0.00 0.00 68 1017.3
20260906155636 21 23 3.2 4.8 0.00 0.00 0.00 69 1017.3
20260906155132 21 338 4.8 6.4 0.00 0.00 0.00 67 1017.3
20260906154627 20 354 1.6 4.8 0.00 0.00 0.00 73 1017.4
20260906154127 21 326 6.4 9.7 0.00 0.00 0.00 68 1017.3
20260906153625 21 358 3.2 9.7 0.00 0.00 0.00 71 1017.2
20260906153121 20 327 3.2 9.7 0.00 0.00 0.00 75 1017.2
20260906152615 18 337 3.2 4.8 0.00 0.00 0.00 78 1017.2
20260906152109 18 312 1.6 6.4 0.00 0.00 0.00 76 1017.3
20260906151604 18 315 6.4 14.5 0.00 0.00 0.00 75 1017.2
20260906151100 19 300 3.2 11.3 0.00 0.00 0.00 75 1017.2
20260906150555 20 346 3.2 14.5 0.00 0.00 0.00 76 1017.2
20260906150050 18 235 3.2 9.7 0.00 0.00 0.00 76 1017.0
20260906145549 18 240 0.0 6.4 0.00 0.00 0.00 77 1017.3
20260906145043 17 343 3.2 9.7 0.00 0.00 0.00 81 1017.0
20260906144532 18 316 3.2 8.0 0.00 0.00 0.00 79 1016.9
20260906144028 18 257 0.0 6.4 0.00 0.00 0.00 80 1017.2
20260906143522 17 351 1.6 11.3 0.00 0.00 0.00 82 1017.2
20260906143019 18 342 4.8 11.3 0.00 0.00 0.00 80 1017.0
20260906142513 18 76 1.6 9.7 0.00 0.00 0.00 83 1017.0
20260906142009 17 266 3.2 12.9 0.00 0.00 0.00 83 1017.0
20260906141507 17 355 3.2 12.9 0.00 0.00 0.00 84 1017.0
20260906141003 18 327 3.2 16.1 0.00 0.00 0.00 83 1016.8
20260906140457 17 346 6.4 12.9 0.00 0.00 0.00 82 1016.8
20260906135955 18 346 3.2 8.0 0.00 0.00 0.00 85 1017.0
20260906135454 16 335 4.8 11.3 0.00 0.00 0.00 86 1016.9
20260906134949 16 33 3.2 6.4 0.00 0.00 0.00 88 1016.9
20260906134444 16 2 3.2 12.9 0.00 0.00 0.00 87 1017.0
20260906133939 16 334 8.0 12.9 0.05 0.00 0.00 88 1017.0
20260906133435 16 279 0.0 11.3 0.05 0.00 0.00 90 1016.9
20260906132930 16 1 8.0 17.7 0.00 0.00 0.00 89 1016.8
20260906132425 16 348 1.6 9.7 0.00 0.00 0.00 90 1016.9
20260906131921 16 340 3.2 6.4 0.00 0.00 0.00 92 1016.8
20260906131416 16 303 4.8 11.3 0.00 0.00 0.00 91 1016.7
20260906130912 15 335 6.4 9.7 0.00 0.00 0.00 94 1016.8
20260906130411 15 284 1.6 6.4 0.00 0.00 0.00 96 1017.2
20260906125905 15 67 3.2 6.4 0.00 0.00 0.00 96 1016.9
20260906125402 15 347 1.6 9.7 0.00 0.00 0.00 96 1016.8
20260906124857 15 356 3.2 8.0 0.00 0.00 0.00 96 1016.8
20260906124353 15 133 0.0 6.4 0.00 0.00 0.00 96 1016.6
20260906123852 15 336 6.4 6.4 0.00 0.00 0.00 96 1016.6
20260906123347 14 357 4.8 9.7 0.00 0.00 0.00 96 1016.4
20260906122847 14 341 1.6 11.3 0.00 0.00 0.00 96 1016.6
20260906122341 14 344 4.8 9.7 0.00 0.00 0.00 96 1016.5
20260906121838 14 0 8.0 12.9 0.00 0.00 0.00 96 1016.6
20260906121334 14 356 6.4 9.7 0.00 0.00 0.00 96 1016.4
20260906120830 14 357 3.2 4.8 0.00 0.00 0.00 96 1016.4
20260906120326 14 28 3.2 8.0 0.00 0.00 0.00 96 1016.5
20260906115822 14 0 1.6 6.4 0.00 0.00 0.00 96 1016.3
20260906115317 13 356 4.8 8.0 0.00 0.00 0.00 96 1016.4
20260906114816 13 0 0.0 8.0 0.00 0.00 0.00 96 1016.1
20260906114312 14 30 1.6 3.2 0.00 0.00 0.00 96 1016.3
20260906113811 14 355 1.6 6.4 0.00 0.00 0.00 96 1016.2
20260906113306 14 324 3.2 9.7 0.00 0.00 0.00 96 1016.1
20260906112801 14 29 1.6 3.2 0.00 0.00 0.00 96 1016.2
20260906112257 14 29 1.6 4.8 0.00 0.00 0.00 96 1016.1
20260906111756 14 268 1.6 4.8 0.00 0.00 0.00 96 1016.2
20260906111255 14 0 3.2 4.8 0.00 0.00 0.00 96 1016.0
20260906110751 14 10 1.6 4.8 0.00 0.00 0.00 96 1016.0
20260906110247 14 359 0.0 3.2 0.00 0.00 0.00 96 1016.0
20260906105746 14 359 0.0 3.2 0.00 0.00 0.00 96 1016.0
20260906105242 14 347 3.2 4.8 0.00 0.00 0.00 96 1016.0
20260906104737 14 18 0.0 4.8 0.00 0.00 0.00 96 1015.8
20260906104236 14 310 0.0 6.4 0.00 0.00 0.00 96 1015.6
20260906103733 14 330 4.8 4.8 0.00 0.00 0.00 96 1015.7
20260906103228 14 315 1.6 4.8 0.00 0.00 0.00 96 1015.6
20260906102724 14 355 0.0 6.4 0.00 0.00 0.00 96 1015.7
20260906102223 14 339 1.6 3.2 0.00 0.00 0.00 96 1015.6
20260906101718 14 33 0.0 3.2 0.00 0.00 0.00 96 1015.6
20260906101213 14 23 0.0 3.2 0.00 0.00 0.00 96 1015.5
20260906100709 14 19 0.0 1.6 0.00 0.00 0.00 96 1015.4
20260906100209 13 50 0.0 1.6 0.00 0.00 0.00 96 1015.5
20260906095703 13 322 0.0 1.6 0.00 0.00 0.00 96 1015.3
20260906095159 13 317 0.0 6.4 0.00 0.00 0.00 96 1015.3
20260906094657 13 288 0.0 6.4 0.00 0.00 0.00 96 1015.5
20260906094153 13 358 1.6 8.0 0.00 0.00 0.00 96 1015.5
20260906093649 13 1 3.2 3.2 0.00 0.00 0.00 96 1015.0
20260906093144 13 339 0.0 3.2 0.00 0.00 0.00 96 1015.0
20260906092639 13 13 1.6 4.8 0.00 0.00 0.00 96 1015.0
20260906092139 12 348 1.6 3.2 0.00 0.00 0.00 96 1015.0
20260906091635 12 1 1.6 3.2 0.00 0.00 0.00 96 1015.1
20260906091132 12 97 0.0 3.2 0.00 0.00 0.00 96 1015.0
20260906090627 12 140 1.6 1.6 0.00 0.00 0.00 96 1014.9
20260906090127 12 44 0.0 1.6 0.00 0.00 0.00 96 1014.8
20260906085626 11 137 1.6 3.2 0.00 0.00 0.00 96 1014.8
20260906085120 12 38 0.0 1.6 0.00 0.00 0.00 96 1014.7
20260906084615 12 113 0.0 3.2 0.00 0.00 0.00 96 1014.8
20260906084114 12 124 0.0 1.6 0.00 0.00 0.00 96 1014.7
20260906083609 12 13 0.0 1.6 0.00 0.00 0.00 96 1014.6
20260906083109 12 230 0.0 1.6 0.00 0.00 0.00 96 1014.4
20260906082605 12 126 0.0 1.6 0.00 0.00 0.00 96 1014.4
20260906082100 12 134 1.6 3.2 0.00 0.00 0.00 96 1014.3
20260906081556 13 134 1.6 3.2 0.00 0.00 0.00 96 1014.2
20260906081051 13 119 0.0 3.2 0.00 0.00 0.00 96 1014.3
20260906080548 12 113 0.0 1.6 0.00 0.00 0.00 96 1014.4
20260906080043 12 125 0.0 1.6 0.00 0.00 0.00 96 1014.4
20260906075537 12 129 0.0 1.6 0.00 0.00 0.00 96 1014.6
20260906075032 13 104 0.0 3.2 0.00 0.00 0.00 96 1014.2
20260906074527 13 89 0.0 1.6 0.00 0.00 0.00 96 1014.4
20260906074025 13 115 1.6 3.2 0.00 0.00 0.00 96 1014.4
20260906073521 13 114 0.0 3.2 0.00 0.00 0.00 96 1014.4
20260906073017 13 104 1.6 3.2 0.00 0.00 0.00 96 1014.2
20260906072511 13 154 0.0 1.6 0.00 0.00 0.00 96 1014.4
20260906072008 13 129 0.0 3.2 0.00 0.00 0.00 96 1014.4
20260906071503 13 125 3.2 3.2 0.00 0.00 0.00 96 1014.6
20260906070958 13 116 3.2 3.2 0.00 0.00 0.00 96 1014.6
20260906070454 13 100 1.6 3.2 0.00 0.00 0.00 96 1014.6
20260906065949 13 109 1.6 3.2 0.00 0.00 0.00 96 1014.4
20260906065444 13 115 1.6 3.2 0.00 0.00 0.00 96 1014.6
20260906064939 13 121 0.0 3.2 0.00 0.00 0.00 96 1014.6
20260906064436 13 97 1.6 3.2 0.00 0.00 0.00 96 1014.3
20260906063936 13 124 1.6 3.2 0.00 0.00 0.00 96 1014.7
20260906063431 13 127 1.6 4.8 0.00 0.00 0.00 96 1014.8
20260906062926 13 120 3.2 3.2 0.00 0.00 0.00 96 1014.7
20260906062421 12 118 1.6 3.2 0.00 0.00 0.00 96 1014.7
20260906061916 12 129 0.0 1.6 0.00 0.00 0.00 96 1014.8
20260906061412 13 129 0.0 3.2 0.00 0.00 0.00 96 1014.7
20260906060906 13 109 1.6 4.8 0.00 0.00 0.00 96 1014.7
20260906060404 13 139 3.2 4.8 0.00 0.00 0.00 96 1014.6
20260906055859 13 121 3.2 3.2 0.00 0.00 0.00 96 1014.8
20260906055355 13 122 1.6 3.2 0.00 0.00 0.00 96 1014.8
20260906054850 13 105 1.6 3.2 0.00 0.00 0.00 96 1014.8
20260906054345 13 43 0.0 1.6 0.00 0.00 0.00 96 1014.8
20260906053841 13 129 0.0 0.0 0.00 0.00 0.00 96 1014.8
20260906053337 13 142 0.0 1.6 0.00 0.00 0.00 96 1014.7
20260906052832 13 50 0.0 3.2 0.00 0.00 0.00 96 1014.8
20260906052329 13 113 1.6 3.2 0.00 0.00 0.00 96 1014.9
20260906051825 13 103 1.6 3.2 0.00 0.00 0.00 96 1014.8
20260906051324 13 119 0.0 1.6 0.00 0.00 0.00 96 1014.8
20260906050821 13 122 0.0 1.6 0.00 0.00 0.00 96 1014.8
20260906050315 13 114 3.2 4.8 0.00 0.00 0.00 96 1014.9
20260906045814 13 114 3.2 4.8 0.00 0.00 0.00 96 1014.7
20260906045308 13 137 0.0 3.2 0.00 0.00 0.00 96 1014.7
20260906044805 13 117 1.6 1.6 0.00 0.00 0.00 96 1014.7
20260906044259 13 85 0.0 3.2 0.00 0.00 0.00 96 1014.8
20260906043755 13 6 1.6 3.2 0.00 0.00 0.00 96 1014.8
20260906043251 13 19 0.0 3.2 0.00 0.00 0.00 96 1014.6
20260906042751 13 6 0.0 1.6 0.00 0.00 0.00 96 1014.8
20260906042250 13 113 0.0 3.2 0.00 0.00 0.00 96 1014.9
20260906041745 13 118 3.2 3.2 0.00 0.00 0.00 96 1014.7
20260906041241 13 103 0.0 1.6 0.00 0.00 0.00 96 1014.8
20260906040736 14 89 0.0 3.2 0.00 0.00 0.00 96 1014.6
20260906040231 14 22 0.0 1.6 0.00 0.00 0.00 96 1014.8
20260906035726 14 36 0.0 4.8 0.00 0.00 0.00 96 1014.8
20260906035217 14 33 1.6 3.2 0.00 0.00 0.00 96 1014.7
20260906034716 14 19 3.2 4.8 0.00 0.00 0.00 96 1014.6
20260906034211 14 8 1.6 4.8 0.00 0.00 0.00 96 1014.6
20260906033707 14 1 3.2 4.8 0.00 0.00 0.00 96 1014.6
20260906033206 14 7 1.6 4.8 0.00 0.00 0.00 96 1014.6
20260906032704 14 347 0.0 3.2 0.00 0.00 0.00 96 1014.4
20260906032158 14 10 3.2 3.2 0.00 0.00 0.00 96 1014.4
20260906031653 14 3 1.6 3.2 0.00 0.00 0.00 96 1014.6
20260906031148 13 7 3.2 3.2 0.00 0.00 0.00 96 1014.4
20260906030648 14 31 1.6 3.2 0.00 0.00 0.00 96 1014.4
20260906030144 14 28 1.6 3.2 0.00 0.00 0.00 96 1014.4
20260906025643 14 35 0.0 1.6 0.00 0.00 0.00 96 1014.2
20260906025142 14 50 0.0 1.6 0.00 0.00 0.00 96 1014.6
20260906024636 14 44 0.0 1.6 0.00 0.00 0.00 96 1014.4
20260906024131 14 113 0.0 1.6 0.00 0.00 0.00 96 1014.6
20260906023627 14 113 0.0 1.6 0.00 0.00 0.00 96 1014.2
20260906023127 14 66 0.0 1.6 0.00 0.00 0.00 96 1014.6
20260906022622 14 124 0.0 0.0 0.00 0.00 0.00 96 1014.2
20260906022118 14 124 0.0 1.6 0.00 0.00 0.00 96 1014.4
20260906021613 15 99 0.0 3.2 0.00 0.00 0.00 96 1014.6
20260906021112 15 104 0.0 3.2 0.00 0.00 0.00 96 1014.4
20260906020612 15 50 0.0 3.2 0.00 0.00 0.00 96 1014.4
20260906020106 15 9 3.2 3.2 0.00 0.00 0.00 96 1014.3
20260906015605 15 9 3.2 3.2 0.00 0.00 0.00 96 1014.6
20260906015059 15 15 1.6 3.2 0.00 0.00 0.00 96 1014.1
20260906014554 15 89 0.0 3.2 0.00 0.00 0.00 96 1014.3
20260906014051 15 113 0.0 1.6 0.00 0.00 0.00 95 1014.1
20260906013545 15 32 0.0 1.6 0.00 0.00 0.00 95 1014.0
20260906013041 15 29 0.0 0.0 0.00 0.00 0.00 94 1013.8
20260906012536 16 9 0.0 3.2 0.00 0.00 0.00 94 1013.9
20260906012035 16 4 1.6 3.2 0.00 0.00 0.00 93 1014.0
20260906011532 16 6 0.0 1.6 0.00 0.00 0.00 93 1013.9
20260906011031 16 5 1.6 3.2 0.00 0.00 0.00 93 1013.9
20260906010527 16 13 0.0 3.2 0.00 0.00 0.00 94 1014.0
20260906010023 16 31 1.6 3.2 0.00 0.00 0.00 94 1014.0
20260906005522 16 0 0.0 3.2 0.00 0.00 0.00 95 1014.1
20260906005021 15 37 0.0 1.6 0.00 0.00 0.00 95 1014.0
20260906004521 15 44 0.0 1.6 0.00 0.00 0.00 95 1013.9
20260906004016 15 43 1.6 3.2 0.00 0.00 0.00 95 1013.8
20260906003510 15 71 1.6 6.4 0.00 0.00 0.00 95 1013.5
20260906003007 16 34 1.6 3.2 0.00 0.00 0.00 95 1013.6
20260906002501 16 32 0.0 3.2 0.00 0.00 0.00 94 1013.7
20260906001956 16 6 0.0 1.6 0.00 0.00 0.00 94 1013.6
20260906001451 16 22 0.0 1.6 0.00 0.00 0.00 93 1013.6
20260906000940 16 6 0.0 1.6 0.00 0.00 0.00 92 1013.7
20260906000435 16 334 0.0 1.6 0.00 0.00 0.00 91 1013.6
20260905235925 17 352 0.0 0.0 0.00 0.00 0.00 90 1013.6
20260905235424 17 335 0.0 1.6 0.00 0.00 0.00 89 1013.6
20260905234919 17 325 0.0 3.2 0.00 0.00 0.00 89 1013.5
20260905234415 17 344 3.2 3.2 0.00 0.00 0.00 89 1013.7
20260905233909 17 328 0.0 1.6 0.00 0.00 0.00 88 1013.6
20260905233405 17 6 0.0 1.6 0.00 0.00 0.00 87 1013.6
20260905232903 17 269 0.0 3.2 0.00 0.00 0.00 87 1013.7
20260905232400 18 309 0.0 1.6 0.00 0.00 0.00 87 1013.7
20260905231855 18 13 0.0 0.0 0.00 0.00 0.00 86 1013.6
20260905231350 18 11 0.0 3.2 0.00 0.00 0.00 84 1013.6
20260905230847 18 308 1.6 4.8 0.00 0.00 0.00 83 1013.4
20260905230344 19 315 0.0 3.2 0.00 0.00 0.00 82 1013.6
20260905225844 20 308 0.0 3.2 0.00 0.00 0.00 80 1013.5
20260905225339 19 335 3.2 6.4 0.00 0.00 0.00 80 1013.6
20260905224834 19 338 1.6 4.8 0.00 0.00 0.00 80 1013.5
20260905224330 19 317 3.2 9.7 0.00 0.00 0.00 80 1013.5
20260905223824 20 32 4.8 4.8 0.00 0.00 0.00 79 1013.4
20260905223322 20 329 1.6 4.8 0.00 0.00 0.00 78 1013.4
20260905222817 20 335 3.2 6.4 0.00 0.00 0.00 78 1013.5
20260905222316 20 315 3.2 3.2 0.00 0.00 0.00 78 1013.3
20260905221812 20 324 4.8 4.8 0.00 0.00 0.00 78 1013.3
20260905221309 20 332 0.0 4.8 0.00 0.00 0.00 76 1013.3
20260905220804 20 325 1.6 3.2 0.00 0.00 0.00 75 1013.1
20260905220300 20 339 3.2 4.8 0.00 0.00 0.00 74 1013.4
20260905215759 21 263 0.0 8.0 0.00 0.00 0.00 73 1013.3
20260905215255 21 287 1.6 6.4 0.00 0.00 0.00 72 1013.0
20260905214750 22 298 1.6 4.8 0.00 0.00 0.00 70 1013.0
20260905214246 21 294 1.6 6.4 0.00 0.00 0.00 71 1013.0
20260905213741 21 286 1.6 6.4 0.00 0.00 0.00 74 1012.8
20260905213238 21 303 1.6 1.6 0.00 0.00 0.00 74 1012.7
20260905212733 21 302 1.6 4.8 0.00 0.00 0.00 73 1012.6
20260905212232 21 313 1.6 9.7 0.00 0.00 0.00 72 1012.8
20260905211731 21 329 3.2 6.4 0.00 0.00 0.00 71 1012.7
20260905211227 21 311 0.0 4.8 0.00 0.00 0.00 72 1012.6
20260905210724 21 276 1.6 8.0 0.00 0.00 0.00 73 1012.6
20260905210223 21 351 4.8 8.0 0.00 0.00 0.00 74 1012.7
20260905205722 21 98 1.6 4.8 0.00 0.00 0.00 74 1012.7
20260905205217 21 343 0.0 4.8 0.00 0.00 0.00 74 1012.8
20260905204717 20 2 3.2 4.8 0.00 0.00 0.00 75 1012.7
20260905204212 20 326 0.0 4.8 0.00 0.00 0.00 73 1012.7
20260905203706 20 291 1.6 3.2 0.00 0.00 0.00 72 1012.7
20260905203202 21 296 0.0 1.6 0.00 0.00 0.00 71 1012.7
20260905202657 21 322 4.8 11.3 0.00 0.00 0.00 69 1012.8
20260905202152 23 337 4.8 6.4 0.00 0.00 0.00 66 1012.6